Location: Barcelona
(41.3829°N, 2.1774°E)
Time: 20:23:01
(UTC+00:00)

ISS - Pass Details

Date: 09 July 2025
Orbit: 413 x 417 km, 51.6° (Epoch: 13 July)

Event Time Altitude Azimuth Distance (km) Brightness Sun altitude
Rises 19:55:46 0° 217° (SW) 2,335 0.1 -5.4°
Reaches altitude 10° 19:57:55 10° 211° (SSW) 1,477 -1.0 -5.7°
Maximum altitude 20:01:04 42° 138° (SE) 600 -3.4 -6.2°
Drops below altitude 10° 20:04:15 10° 66° (ENE) 1,488 -1.2 -6.7°
Sets 20:06:24 0° 60° (ENE) 2,355 -0.2 -7.0°
